Regional Weather Roundup
Issued by NWS

Home | Current Version | Previous Version | Text Only | Print | Product List | Glossary On
Versions: 1 2 3 4 5 6 7 8 9 10 11 12 13 14 15 16 17 18 19 20 21 22 23 24 25 26 27 28 29 30 31 32 33 34 35 36 37 38 39 40 41 42 43 44 45 46 47 48 49 50
000
ASUS44 KOUN 300010
RWROK

WEATHER ROUNDUP FOR OKLAHOMA
NATIONAL WEATHER SERVICE NORMAN OK
700 PM CDT SAT AUG 29 2015

NOTE: "FAIR" INDICATES FEW OR NO CLOUDS BELOW 12,000 FEET WITH NO
      SIGNIFICANT WEATHER AND/OR OBSTRUCTIONS TO VISIBILITY.

OKZ001>007-009>012-014-015-017-300100-
NORTHWEST OKLAHOMA AND THE PANHANDLE

CITY           SKY/WX    TMP DP  RH WIND       PRES   REMARKS
GAGE           SUNNY     85  55  35 N8        30.04R
6HR MIN TEMP:  85; 6HR MAX TEMP:  91;

GUYMON         SUNNY     85  46  25 E8        30.09S
ENID/WOODRING  MOSUNNY   82  64  54 N12       29.97S
$$

OKZ016-021>023-033>039-044-045-300100-
SOUTHWEST OKLAHOMA

CITY           SKY/WX    TMP DP  RH WIND       PRES   REMARKS
LAWTON/REGL    CLOUDY    91  66  43 NE5       29.93S HX  93
6HR MIN TEMP:  87; 6HR MAX TEMP:  93;

LAWTON/FT SILL CLOUDY    89  69  50 E6        29.92S HX  94
FREDERICK      CLOUDY    90  68  48 SE3       29.93R HX  94
CLINTON        SUNNY     88  57  34 NE3       30.02S
HOBART         MOSUNNY   90  57  32 N9        29.98R
ALTUS AFB      PTSUNNY   90  59  35 N3        29.96R
$$

OKZ018>020-024>031-300100-
CENTRAL OKLAHOMA

CITY           SKY/WX    TMP DP  RH WIND       PRES   REMARKS
OKLAHOMA CITY  MOSUNNY   88  61  40 N7        29.95F
6HR MIN TEMP:  87; 6HR MAX TEMP:  91;

OKC/WILEY POST SUNNY     87  61  41 N7        29.96S
OKC/TINKER AFB SUNNY     86  66  51 N7        29.95S
STILLWATER     SUNNY     82  65  56 N6        29.96S
GUTHRIE        SUNNY     86  61  42 N5        29.96S
$$

OKZ008-013-054>072-300100-
NORTHEAST OKLAHOMA

CITY           SKY/WX    TMP DP  RH WIND       PRES   REMARKS
TULSA          MOSUNNY   83  71  67 N7        29.93F
6HR MIN TEMP:  81; 6HR MAX TEMP:  87;

TULSA/JONES    PTSUNNY   84  70  62 N3        29.94S
PONCA CITY     MOSUNNY   80  64  58 NW6       29.97F
BARTLESVILLE   PTSUNNY   78  67  68 N8        29.97F
MUSKOGEE       LGT RAIN  86  72  62 CALM      29.94S HX  92
$$

OKZ032-040>043-046>053-073>077-300100-
SOUTH CENTRAL/SOUTHEAST OKLAHOMA

CITY           SKY/WX    TMP DP  RH WIND       PRES   REMARKS
ARDMORE/DWNTWN PTSUNNY   90  63  40 CALM      29.90S HX  90
MCALESTER      PTSUNNY   86  75  69 CALM      29.93F HX  95
$$




USA.gov is the U.S. government's official web portal to all federal, state and local government web resources and services.